Starlink 31879

operational
NORAD ID: 59937 Int'l Des: 2024-106 Owner: SPXS Country: US Constellation: starlink
LEOCIRCULAR

Über Starlink 31879

Beschreibung wird geladen...

Live-Position

3D-Globus wird geladen...

Nächste Überflüge

Höhenverlauf

Altitude vs Time

uPlot chart will show altitude changes over time

Zweizeiliger Elementsatz

1 59937U 24106R 25257.31587024 .00004337 00000-0 16705-3 0 9996
2 59937 43.0014 249.0170 0000997 273.7618 86.3120 15.27577146 73598
Epoch: 14. Sept. 2025 • Age: 28 hours

Aktueller Status

Höhe 495.4 km
Geschwindigkeit 7.62 km/s
Subsatellitenpunkt -42.45°S, 25.82°W
Startdatum 1. Juni 2024
Alter 1.2 years
Typ internet

Technische Details

Klassifizierung Payload
Masse 730.00 kg
Trockenmasse 700.00 kg
Gesamtmasse 730.00 kg
Länge 0.30 m
Durchmesser 4.10 m
Spannweite 29.00 m
Form Box + pan
Hersteller SPXS
Bus-Typ Starlink V2M
Phasenstatus In Orbit
Besitzer/Staat SPXS/US

Große Konstellationen

Loading constellations...